Time,TemperatureF,DewpointF,PressureIn,WindDirection,WindDirectionDegrees,WindSpeedMPH,WindSpeedGustMPH,Humidity,HourlyPrecipIn,Conditions,Clouds,dailyrainin,SoftwareType,DateUTC
2013-02-16 00:00:00,26.1,18.9,30.17,WNW,297,4.0,5.0,74,0.00,,,0.00,Wunderground v.1.15,2013-02-16 05:00:00,
2013-02-16 00:05:00,26.0,18.5,30.17,West,278,4.0,5.0,73,0.00,,,0.00,Wunderground v.1.15,2013-02-16 05:05:00,
2013-02-16 00:10:00,25.8,18.7,30.17,WNW,300,4.0,4.0,74,0.00,,,0.00,Wunderground v.1.15,2013-02-16 05:10:00,
2013-02-16 00:15:00,25.7,18.6,30.17,West,277,4.0,5.0,74,0.00,,,0.00,Wunderground v.1.15,2013-02-16 05:15:00,
2013-02-16 00:20:00,25.5,18.4,30.17,West,277,5.0,5.0,74,0.00,,,0.00,Wunderground v.1.15,2013-02-16 05:20:00,
2013-02-16 00:25:00,25.4,18.6,30.17,NW,320,5.0,6.0,75,0.00,,,0.00,Wunderground v.1.15,2013-02-16 05:25:00,
2013-02-16 00:30:00,25.2,18.4,30.17,West,281,5.0,6.0,75,0.00,,,0.00,Wunderground v.1.15,2013-02-16 05:30:00,
2013-02-16 00:40:00,24.9,18.4,30.17,NW,311,5.0,5.0,76,0.00,,,0.00,Wunderground v.1.15,2013-02-16 05:40:00,
2013-02-16 00:45:00,24.7,18.5,30.17,West,269,5.0,5.0,77,0.00,,,0.00,Wunderground v.1.15,2013-02-16 05:45:00,
2013-02-16 00:50:00,24.6,18.1,30.17,NW,316,5.0,6.0,76,0.00,,,0.00,Wunderground v.1.15,2013-02-16 05:50:00,
2013-02-16 00:55:00,24.5,17.7,30.17,NW,315,5.0,6.0,75,0.00,,,0.00,Wunderground v.1.15,2013-02-16 05:55:00,
2013-02-16 01:00:00,24.3,17.5,30.16,WNW,287,5.0,10.0,75,0.00,,,0.00,Wunderground v.1.15,2013-02-16 06:00:00,
2013-02-16 01:05:00,24.2,17.1,30.16,NW,308,5.0,10.0,74,0.00,,,0.00,Wunderground v.1.15,2013-02-16 06:05:00,
2013-02-16 01:10:00,24.0,16.9,30.16,NNW,346,5.0,6.0,74,0.00,,,0.00,Wunderground v.1.15,2013-02-16 06:10:00,
2013-02-16 01:15:00,23.9,17.1,30.17,NW,319,5.0,6.0,75,0.00,,,0.00,Wunderground v.1.15,2013-02-16 06:15:00,
2013-02-16 01:20:00,23.9,17.1,30.16,WSW,251,4.0,5.0,75,0.00,,,0.00,Wunderground v.1.15,2013-02-16 06:20:00,
2013-02-16 01:25:00,23.7,17.2,30.16,WNW,292,4.0,5.0,76,0.00,,,0.00,Wunderground v.1.15,2013-02-16 06:25:00,
2013-02-16 01:30:00,23.6,17.4,30.17,NW,316,4.0,5.0,77,0.00,,,0.00,Wunderground v.1.15,2013-02-16 06:30:00,
2013-02-16 01:35:00,23.5,17.6,30.16,West,275,4.0,5.0,78,0.00,,,0.00,Wunderground v.1.15,2013-02-16 06:35:00,
2013-02-16 01:45:00,23.3,17.5,30.16,WNW,302,5.0,8.0,78,0.00,,,0.00,Wunderground v.1.15,2013-02-16 06:45:00,
2013-02-16 01:50:00,23.1,17.3,30.16,NW,324,5.0,5.0,78,0.00,,,0.00,Wunderground v.1.15,2013-02-16 06:50:00,
2013-02-16 01:55:00,23.1,17.3,30.16,NW,309,5.0,5.0,78,0.00,,,0.00,Wunderground v.1.15,2013-02-16 06:55:00,
2013-02-16 02:00:00,23.1,17.3,30.16,NW,309,5.0,10.0,78,0.00,,,0.00,Wunderground v.1.15,2013-02-16 07:00:00,
2013-02-16 02:05:00,23.0,17.2,30.16,WNW,292,5.0,10.0,78,0.00,,,0.00,Wunderground v.1.15,2013-02-16 07:05:00,
2013-02-16 02:15:00,22.8,17.3,30.15,WNW,302,5.0,5.0,79,0.00,,,0.00,Wunderground v.1.15,2013-02-16 07:15:00,
2013-02-16 02:20:00,22.8,17.3,30.15,NW,312,5.0,5.0,79,0.00,,,0.00,Wunderground v.1.15,2013-02-16 07:20:00,
2013-02-16 02:25:00,22.7,17.5,30.15,WNW,292,5.0,5.0,80,0.00,,,0.00,Wunderground v.1.15,2013-02-16 07:25:00,
2013-02-16 02:30:00,22.6,17.4,30.15,NW,308,4.0,6.0,80,0.00,,,0.00,Wunderground v.1.15,2013-02-16 07:30:00,
2013-02-16 02:35:00,22.5,17.3,30.15,WNW,284,5.0,6.0,80,0.00,,,0.00,Wunderground v.1.15,2013-02-16 07:35:00,
2013-02-16 02:40:00,22.4,17.5,30.15,WNW,292,4.0,5.0,81,0.00,,,0.00,Wunderground v.1.15,2013-02-16 07:40:00,
2013-02-16 02:50:00,22.5,17.5,30.14,NW,319,5.0,5.0,81,0.00,,,0.00,Wunderground v.1.15,2013-02-16 07:50:00,
2013-02-16 02:55:00,22.4,17.5,30.14,NW,310,4.0,5.0,81,0.00,,,0.00,Wunderground v.1.15,2013-02-16 07:55:00,
2013-02-16 03:00:00,22.5,17.8,30.14,West,279,5.0,5.0,82,0.00,,,0.00,Wunderground v.1.15,2013-02-16 08:00:00,
2013-02-16 03:05:00,22.5,17.8,30.14,West,275,5.0,7.0,82,0.00,,,0.00,Wunderground v.1.15,2013-02-16 08:05:00,
2013-02-16 03:10:00,22.6,17.9,30.14,NW,314,5.0,5.0,82,0.00,,,0.00,Wunderground v.1.15,2013-02-16 08:10:00,
2013-02-16 03:20:00,22.6,17.9,30.14,WNW,294,4.0,6.0,82,0.00,,,0.00,Wunderground v.1.15,2013-02-16 08:20:00,
2013-02-16 03:25:00,22.5,17.8,30.14,WNW,287,5.0,6.0,82,0.00,,,0.00,Wunderground v.1.15,2013-02-16 08:25:00,
2013-02-16 03:30:00,22.4,17.7,30.14,West,281,5.0,6.0,82,0.00,,,0.00,Wunderground v.1.15,2013-02-16 08:30:00,
2013-02-16 03:35:00,22.2,17.5,30.14,NW,325,4.0,6.0,82,0.00,,,0.00,Wunderground v.1.15,2013-02-16 08:35:00,
2013-02-16 03:40:00,22.1,17.4,30.14,NW,317,4.0,5.0,82,0.00,,,0.00,Wunderground v.1.15,2013-02-16 08:40:00,
2013-02-16 03:45:00,22.0,17.3,30.14,WNW,299,4.0,5.0,82,0.00,,,0.00,Wunderground v.1.15,2013-02-16 08:45:00,
2013-02-16 03:50:00,21.8,17.4,30.14,NW,321,3.0,6.0,83,0.00,,,0.00,Wunderground v.1.15,2013-02-16 08:50:00,
2013-02-16 03:55:00,21.8,17.4,30.14,West,279,4.0,6.0,83,0.00,,,0.00,Wunderground v.1.15,2013-02-16 08:55:00,
2013-02-16 04:00:00,21.7,17.3,30.14,West,270,3.0,3.0,83,0.00,,,0.00,Wunderground v.1.15,2013-02-16 09:00:00,
2013-02-16 04:05:00,21.6,17.5,30.14,West,279,3.0,5.0,84,0.00,,,0.00,Wunderground v.1.15,2013-02-16 09:05:00,
2013-02-16 04:10:00,21.5,17.4,30.14,NW,322,3.0,5.0,84,0.00,,,0.00,Wunderground v.1.15,2013-02-16 09:10:00,
2013-02-16 04:15:00,21.5,17.4,30.14,WNW,295,4.0,6.0,84,0.00,,,0.00,Wunderground v.1.15,2013-02-16 09:15:00,
2013-02-16 04:25:00,21.4,17.3,30.14,NW,305,3.0,5.0,84,0.00,,,0.00,Wunderground v.1.15,2013-02-16 09:25:00,
2013-02-16 04:30:00,21.4,17.3,30.14,WNW,295,3.0,5.0,84,0.00,,,0.00,Wunderground v.1.15,2013-02-16 09:30:00,
2013-02-16 04:35:00,21.4,17.3,30.14,WNW,302,4.0,5.0,84,0.00,,,0.00,Wunderground v.1.15,2013-02-16 09:35:00,
2013-02-16 04:40:00,21.3,16.9,30.14,WNW,301,4.0,4.0,83,0.00,,,0.00,Wunderground v.1.15,2013-02-16 09:40:00,
2013-02-16 04:45:00,21.2,16.8,30.14,NNW,336,3.0,5.0,83,0.00,,,0.00,Wunderground v.1.15,2013-02-16 09:45:00,
2013-02-16 04:55:00,21.0,14.9,30.14,NNW,338,4.0,5.0,77,0.00,,,0.00,Wunderground v.1.15,2013-02-16 09:55:00,
2013-02-16 05:00:00,21.0,14.9,30.14,NW,321,4.0,4.0,77,0.00,,,0.00,Wunderground v.1.15,2013-02-16 10:00:00,
2013-02-16 05:05:00,20.8,14.4,30.14,WNW,291,4.0,5.0,76,0.00,,,0.00,Wunderground v.1.15,2013-02-16 10:05:00,
2013-02-16 05:10:00,20.7,14.0,30.14,NW,313,4.0,5.0,75,0.00,,,0.00,Wunderground v.1.15,2013-02-16 10:10:00,
2013-02-16 05:15:00,20.6,13.9,30.14,NW,313,5.0,5.0,75,0.00,,,0.00,Wunderground v.1.15,2013-02-16 10:15:00,
2013-02-16 05:20:00,20.4,13.7,30.14,NNW,336,4.0,4.0,75,0.00,,,0.00,Wunderground v.1.15,2013-02-16 10:20:00,
2013-02-16 05:30:00,20.4,14.0,30.14,WNW,299,4.0,4.0,76,0.00,,,0.00,Wunderground v.1.15,2013-02-16 10:30:00,
2013-02-16 05:35:00,20.4,14.0,30.15,NNW,337,2.0,5.0,76,0.00,,,0.00,Wunderground v.1.15,2013-02-16 10:35:00,
2013-02-16 05:40:00,20.4,13.7,30.15,NW,306,2.0,5.0,75,0.00,,,0.00,Wunderground v.1.15,2013-02-16 10:40:00,
2013-02-16 05:45:00,20.3,13.9,30.15,NW,325,3.0,5.0,76,0.00,,,0.00,Wunderground v.1.15,2013-02-16 10:45:00,
2013-02-16 05:50:00,20.3,13.9,30.15,NNW,333,2.0,5.0,76,0.00,,,0.00,Wunderground v.1.15,2013-02-16 10:50:00,
2013-02-16 06:00:00,20.2,14.1,30.15,NNW,333,1.0,1.0,77,0.00,,,0.00,Wunderground v.1.15,2013-02-16 11:00:00,
2013-02-16 06:10:00,20.2,14.1,30.15,NNW,333,2.0,2.0,77,0.00,,,0.00,Wunderground v.1.15,2013-02-16 11:10:00,
2013-02-16 06:15:00,20.2,14.1,30.15,NNW,333,2.0,2.0,77,0.00,,,0.00,Wunderground v.1.15,2013-02-16 11:15:00,
2013-02-16 06:20:00,20.2,14.1,30.14,NNW,333,1.0,2.0,77,0.00,,,0.00,Wunderground v.1.15,2013-02-16 11:20:00,
2013-02-16 06:25:00,20.2,14.1,30.14,NNW,332,2.0,2.0,77,0.00,,,0.00,Wunderground v.1.15,2013-02-16 11:25:00,
2013-02-16 06:35:00,20.2,14.1,30.14,NNW,331,2.0,2.0,77,0.00,,,0.00,Wunderground v.1.15,2013-02-16 11:35:00,
2013-02-16 06:40:00,20.2,14.1,30.14,NNW,331,2.0,3.0,77,0.00,,,0.00,Wunderground v.1.15,2013-02-16 11:40:00,
2013-02-16 06:45:00,20.4,14.0,30.14,WNW,290,3.0,4.0,76,0.00,,,0.00,Wunderground v.1.15,2013-02-16 11:45:00,
2013-02-16 06:50:00,20.6,14.5,30.14,NW,319,5.0,5.0,77,0.00,,,0.00,Wunderground v.1.15,2013-02-16 11:50:00,
2013-02-16 06:55:00,20.6,14.5,30.14,NW,325,6.0,6.0,77,0.00,,,0.00,Wunderground v.1.15,2013-02-16 11:55:00,
2013-02-16 07:05:00,20.0,13.9,30.15,West,276,6.0,6.0,77,0.00,,,0.00,Wunderground v.1.15,2013-02-16 12:05:00,
2013-02-16 07:10:00,19.8,14.0,30.15,WNW,292,6.0,14.0,78,0.00,,,0.00,Wunderground v.1.15,2013-02-16 12:10:00,
2013-02-16 07:15:00,19.6,13.6,30.15,WNW,299,6.0,14.0,77,0.00,,,0.00,Wunderground v.1.15,2013-02-16 12:15:00,
2013-02-16 07:20:00,19.4,13.7,30.15,WNW,290,7.0,8.0,78,0.00,,,0.00,Wunderground v.1.15,2013-02-16 12:20:00,
2013-02-16 07:25:00,19.2,13.8,30.15,West,275,6.0,8.0,79,0.00,,,0.00,Wunderground v.1.15,2013-02-16 12:25:00,
2013-02-16 07:30:00,18.9,14.0,30.15,NW,304,5.0,5.0,81,0.00,,,0.00,Wunderground v.1.15,2013-02-16 12:30:00,
2013-02-16 07:40:00,18.4,13.8,30.15,NW,311,4.0,4.0,82,0.00,,,0.00,Wunderground v.1.15,2013-02-16 12:40:00,
2013-02-16 07:45:00,18.2,13.9,30.16,NW,304,3.0,6.0,83,0.00,,,0.00,Wunderground v.1.15,2013-02-16 12:45:00,
2013-02-16 07:50:00,18.1,13.8,30.16,WNW,294,3.0,6.0,83,0.00,,,0.00,Wunderground v.1.15,2013-02-16 12:50:00,
2013-02-16 07:55:00,18.0,13.7,30.16,NW,309,4.0,6.0,83,0.00,,,0.00,Wunderground v.1.15,2013-02-16 12:55:00,
2013-02-16 08:00:00,18.0,13.7,30.16,WNW,300,5.0,6.0,83,0.00,,,0.00,Wunderground v.1.15,2013-02-16 13:00:00,
2013-02-16 08:10:00,18.0,14.0,30.16,WNW,300,4.0,6.0,84,0.00,,,0.00,Wunderground v.1.15,2013-02-16 13:10:00,
2013-02-16 08:15:00,17.9,13.9,30.16,WNW,294,4.0,6.0,84,0.00,,,0.00,Wunderground v.1.15,2013-02-16 13:15:00,
2013-02-16 08:20:00,18.0,14.0,30.16,West,270,4.0,6.0,84,0.00,,,0.00,Wunderground v.1.15,2013-02-16 13:20:00,
2013-02-16 08:25:00,18.1,14.1,30.17,NNW,327,4.0,6.0,84,0.00,,,0.00,Wunderground v.1.15,2013-02-16 13:25:00,
2013-02-16 08:30:00,18.2,14.2,30.17,NW,322,4.0,9.0,84,0.00,,,0.00,Wunderground v.1.15,2013-02-16 13:30:00,
2013-02-16 08:35:00,18.1,13.5,30.17,NW,313,5.0,9.0,82,0.00,,,0.00,Wunderground v.1.15,2013-02-16 13:35:00,
2013-02-16 08:45:00,18.5,14.2,30.17,West,273,5.0,6.0,83,0.00,,,0.00,Wunderground v.1.15,2013-02-16 13:45:00,
2013-02-16 08:50:00,18.5,13.9,30.17,WNW,298,6.0,6.0,82,0.00,,,0.00,Wunderground v.1.15,2013-02-16 13:50:00,
2013-02-16 08:55:00,18.2,13.6,30.17,NW,305,7.0,7.0,82,0.00,,,0.00,Wunderground v.1.15,2013-02-16 13:55:00,
2013-02-16 09:05:00,18.3,13.7,30.17,NW,307,5.0,6.0,82,0.00,,,0.00,Wunderground v.1.15,2013-02-16 14:05:00,
2013-02-16 09:10:00,18.2,13.6,30.18,NW,313,6.0,8.0,82,0.00,,,0.00,Wunderground v.1.15,2013-02-16 14:10:00,
2013-02-16 09:15:00,18.3,13.4,30.18,WNW,302,7.0,8.0,81,0.00,,,0.00,Wunderground v.1.15,2013-02-16 14:15:00,
2013-02-16 09:20:00,18.4,13.5,30.18,WNW,292,8.0,8.0,81,0.00,,,0.00,Wunderground v.1.15,2013-02-16 14:20:00,
2013-02-16 09:25:00,18.3,13.2,30.18,WNW,300,9.0,13.0,80,0.00,,,0.00,Wunderground v.1.15,2013-02-16 14:25:00,
2013-02-16 09:35:00,18.3,13.2,30.18,West,268,7.0,9.0,80,0.00,,,0.00,Wunderground v.1.15,2013-02-16 14:35:00,
2013-02-16 09:40:00,18.2,13.3,30.18,WNW,295,8.0,8.0,81,0.00,,,0.00,Wunderground v.1.15,2013-02-16 14:40:00,
2013-02-16 09:50:00,18.9,13.7,30.18,WSW,258,7.0,12.0,80,0.00,,,0.00,Wunderground v.1.15,2013-02-16 14:50:00,
2013-02-16 09:55:00,18.6,13.2,30.18,NNW,329,7.0,12.0,79,0.00,,,0.00,Wunderground v.1.15,2013-02-16 14:55:00,
2013-02-16 10:00:00,18.3,12.6,30.18,NW,310,7.0,7.0,78,0.00,,,0.00,Wunderground v.1.15,2013-02-16 15:00:00,
2013-02-16 10:05:00,18.3,12.6,30.18,NW,317,7.0,9.0,78,0.00,,,0.00,Wunderground v.1.15,2013-02-16 15:05:00,
2013-02-16 10:10:00,18.9,13.5,30.18,NW,323,7.0,8.0,79,0.00,,,0.00,Wunderground v.1.15,2013-02-16 15:10:00,
2013-02-16 10:15:00,19.2,13.2,30.18,West,279,7.0,10.0,77,0.00,,,0.00,Wunderground v.1.15,2013-02-16 15:15:00,
2013-02-16 10:20:00,19.6,13.3,30.18,NW,319,8.0,8.0,76,0.00,,,0.00,Wunderground v.1.15,2013-02-16 15:20:00,
2013-02-16 10:25:00,19.5,12.6,30.18,WNW,290,8.0,8.0,74,0.00,,,0.00,Wunderground v.1.15,2013-02-16 15:25:00,
2013-02-16 10:35:00,19.6,12.7,30.18,NW,310,7.0,13.0,74,0.00,,,0.00,Wunderground v.1.15,2013-02-16 15:35:00,
2013-02-16 10:40:00,19.6,12.3,30.18,NW,319,7.0,8.0,73,0.00,,,0.00,Wunderground v.1.15,2013-02-16 15:40:00,
2013-02-16 10:45:00,19.5,11.6,30.18,WNW,292,8.0,8.0,71,0.00,,,0.00,Wunderground v.1.15,2013-02-16 15:45:00,
2013-02-16 10:50:00,20.0,12.1,30.18,NNW,336,8.0,9.0,71,0.00,,,0.00,Wunderground v.1.15,2013-02-16 15:50:00,
2013-02-16 11:00:00,19.9,11.7,30.18,WNW,302,10.0,13.0,70,0.00,,,0.00,Wunderground v.1.15,2013-02-16 16:00:00,
2013-02-16 11:05:00,19.9,11.0,30.18,NW,317,9.0,13.0,68,0.00,,,0.00,Wunderground v.1.15,2013-02-16 16:05:00,
2013-02-16 11:10:00,20.2,12.0,30.18,WNW,286,7.0,9.0,70,0.00,,,0.00,Wunderground v.1.15,2013-02-16 16:10:00,
2013-02-16 11:15:00,20.4,11.2,30.18,WNW,292,7.0,9.0,67,0.00,,,0.00,Wunderground v.1.15,2013-02-16 16:15:00,
2013-02-16 11:20:00,20.8,11.9,30.18,WNW,292,7.0,9.0,68,0.00,,,0.00,Wunderground v.1.15,2013-02-16 16:20:00,
2013-02-16 11:25:00,20.7,12.1,30.18,NNW,343,6.0,9.0,69,0.00,,,0.00,Wunderground v.1.15,2013-02-16 16:25:00,
2013-02-16 11:35:00,21.2,11.3,30.18,NNW,344,7.0,10.0,65,0.00,,,0.00,Wunderground v.1.15,2013-02-16 16:35:00,
2013-02-16 11:40:00,21.6,12.0,30.18,WNW,285,7.0,7.0,66,0.00,,,0.00,Wunderground v.1.15,2013-02-16 16:40:00,
2013-02-16 11:45:00,21.5,11.2,30.18,NW,308,8.0,13.0,64,0.00,,,0.00,Wunderground v.1.15,2013-02-16 16:45:00,
2013-02-16 11:50:00,21.1,11.5,30.18,West,266,8.0,9.0,66,0.00,,,0.00,Wunderground v.1.15,2013-02-16 16:50:00,
2013-02-16 11:55:00,21.5,10.8,30.18,WSW,258,9.0,9.0,63,0.00,,,0.00,Wunderground v.1.15,2013-02-16 16:55:00,
2013-02-16 12:05:00,21.5,11.2,30.18,NW,316,7.0,12.0,64,0.00,,,0.00,Wunderground v.1.15,2013-02-16 17:05:00,
2013-02-16 12:10:00,22.0,11.0,30.18,West,277,6.0,7.0,62,0.00,,,0.00,Wunderground v.1.15,2013-02-16 17:10:00,
2013-02-16 12:15:00,21.6,10.9,30.18,NW,325,7.0,7.0,63,0.00,,,0.00,Wunderground v.1.15,2013-02-16 17:15:00,
2013-02-16 12:20:00,21.2,11.3,30.18,North,350,9.0,9.0,65,0.00,,,0.00,Wunderground v.1.15,2013-02-16 17:20:00,
2013-02-16 12:25:00,21.2,10.6,30.18,NNW,331,9.0,9.0,63,0.00,,,0.00,Wunderground v.1.15,2013-02-16 17:25:00,
2013-02-16 12:35:00,22.1,11.1,30.17,WNW,300,7.0,9.0,62,0.00,,,0.00,Wunderground v.1.15,2013-02-16 17:35:00,
2013-02-16 12:40:00,22.3,10.5,30.17,WNW,291,6.0,6.0,60,0.00,,,0.00,Wunderground v.1.15,2013-02-16 17:40:00,
2013-02-16 12:45:00,22.7,10.9,30.17,NW,316,6.0,6.0,60,0.00,,,0.00,Wunderground v.1.15,2013-02-16 17:45:00,
2013-02-16 12:50:00,23.0,10.8,30.17,NW,312,6.0,8.0,59,0.00,,,0.00,Wunderground v.1.15,2013-02-16 17:50:00,
2013-02-16 12:55:00,23.2,10.6,30.17,NW,313,7.0,8.0,58,0.00,,,0.00,Wunderground v.1.15,2013-02-16 17:55:00,
2013-02-16 13:00:00,23.3,9.9,30.17,WNW,290,8.0,15.0,56,0.00,,,0.00,Wunderground v.1.15,2013-02-16 18:00:00,
2013-02-16 13:05:00,23.2,10.6,30.16,NW,323,8.0,15.0,58,0.00,,,0.00,Wunderground v.1.15,2013-02-16 18:05:00,
2013-02-16 13:15:00,23.0,10.4,30.16,WNW,300,8.0,8.0,58,0.00,,,0.00,Wunderground v.1.15,2013-02-16 18:15:00,
2013-02-16 13:20:00,22.3,9.7,30.16,NW,306,8.0,11.0,58,0.00,,,0.00,Wunderground v.1.15,2013-02-16 18:20:00,
2013-02-16 13:25:00,21.8,9.7,30.16,NW,308,8.0,11.0,59,0.00,,,0.00,Wunderground v.1.15,2013-02-16 18:25:00,
2013-02-16 13:30:00,21.9,10.5,30.16,NW,304,8.0,8.0,61,0.00,,,0.00,Wunderground v.1.15,2013-02-16 18:30:00,
2013-02-16 13:35:00,22.7,10.9,30.16,NW,311,7.0,8.0,60,0.00,,,0.00,Wunderground v.1.15,2013-02-16 18:35:00,
2013-02-16 13:40:00,22.8,10.2,30.16,NW,317,8.0,10.0,58,0.00,,,0.00,Wunderground v.1.15,2013-02-16 18:40:00,
2013-02-16 13:45:00,23.1,10.5,30.15,West,276,9.0,10.0,58,0.00,,,0.00,Wunderground v.1.15,2013-02-16 18:45:00,
2013-02-16 13:55:00,22.4,10.2,30.16,West,279,9.0,9.0,59,0.00,,,0.00,Wunderground v.1.15,2013-02-16 18:55:00,
2013-02-16 14:00:00,22.9,11.4,30.15,NW,318,7.0,8.0,61,0.00,,,0.00,Wunderground v.1.15,2013-02-16 19:00:00,
2013-02-16 14:05:00,23.2,11.0,30.15,West,280,5.0,13.0,59,0.00,,,0.00,Wunderground v.1.15,2013-02-16 19:05:00,
2013-02-16 14:10:00,23.2,11.0,30.15,WNW,290,6.0,10.0,59,0.00,,,0.00,Wunderground v.1.15,2013-02-16 19:10:00,
2013-02-16 14:15:00,22.9,9.9,30.15,WNW,293,8.0,11.0,57,0.00,,,0.00,Wunderground v.1.15,2013-02-16 19:15:00,
2013-02-16 14:20:00,22.9,10.7,30.15,West,276,8.0,8.0,59,0.00,,,0.00,Wunderground v.1.15,2013-02-16 19:20:00,
2013-02-16 14:25:00,23.0,10.8,30.15,WNW,298,7.0,9.0,59,0.00,,,0.00,Wunderground v.1.15,2013-02-16 19:25:00,
2013-02-16 14:30:00,22.6,10.4,30.15,NNW,327,7.0,7.0,59,0.00,,,0.00,Wunderground v.1.15,2013-02-16 19:30:00,
2013-02-16 14:40:00,22.6,10.4,30.15,NW,325,7.0,9.0,59,0.00,,,0.00,Wunderground v.1.15,2013-02-16 19:40:00,
2013-02-16 14:45:00,22.6,10.8,30.15,West,273,8.0,9.0,60,0.00,,,0.00,Wunderground v.1.15,2013-02-16 19:45:00,
2013-02-16 14:50:00,22.4,11.0,30.15,NNW,333,7.0,12.0,61,0.00,,,0.00,Wunderground v.1.15,2013-02-16 19:50:00,
2013-02-16 14:55:00,22.5,11.1,30.15,West,269,8.0,12.0,61,0.00,,,0.00,Wunderground v.1.15,2013-02-16 19:55:00,
2013-02-16 15:00:00,22.5,11.1,30.15,West,271,8.0,13.0,61,0.00,,,0.00,Wunderground v.1.15,2013-02-16 20:00:00,
2013-02-16 15:05:00,22.6,11.5,30.15,WNW,289,8.0,13.0,62,0.00,,,0.00,Wunderground v.1.15,2013-02-16 20:05:00,
2013-02-16 15:15:00,22.7,11.3,30.15,West,263,7.0,11.0,61,0.00,,,0.00,Wunderground v.1.15,2013-02-16 20:15:00,
2013-02-16 15:20:00,22.5,11.8,30.15,NNW,341,8.0,10.0,63,0.00,,,0.00,Wunderground v.1.15,2013-02-16 20:20:00,
2013-02-16 15:30:00,22.7,12.0,30.15,NNW,342,9.0,9.0,63,0.00,,,0.00,Wunderground v.1.15,2013-02-16 20:30:00,
2013-02-16 15:35:00,22.9,11.4,30.15,West,266,8.0,12.0,61,0.00,,,0.00,Wunderground v.1.15,2013-02-16 20:35:00,
2013-02-16 15:40:00,23.0,11.9,30.15,West,275,6.0,6.0,62,0.00,,,0.00,Wunderground v.1.15,2013-02-16 20:40:00,
2013-02-16 15:50:00,22.9,11.8,30.14,West,273,7.0,12.0,62,0.00,,,0.00,Wunderground v.1.15,2013-02-16 20:50:00,
2013-02-16 15:55:00,23.0,11.9,30.14,WNW,300,7.0,12.0,62,0.00,,,0.00,Wunderground v.1.15,2013-02-16 20:55:00,
2013-02-16 16:00:00,22.8,12.1,30.14,WNW,290,7.0,10.0,63,0.00,,,0.00,Wunderground v.1.15,2013-02-16 21:00:00,
2013-02-16 16:05:00,22.3,12.7,30.15,WNW,286,8.0,10.0,66,0.00,,,0.00,Wunderground v.1.15,2013-02-16 21:05:00,
2013-02-16 16:10:00,22.5,13.2,30.15,NNW,342,7.0,7.0,67,0.00,,,0.00,Wunderground v.1.15,2013-02-16 21:10:00,
2013-02-16 16:15:00,22.6,13.3,30.14,West,277,7.0,9.0,67,0.00,,,0.00,Wunderground v.1.15,2013-02-16 21:15:00,
2013-02-16 16:20:00,22.6,13.3,30.14,WNW,302,7.0,11.0,67,0.00,,,0.00,Wunderground v.1.15,2013-02-16 21:20:00,
2013-02-16 16:25:00,22.7,13.4,30.14,NNW,328,7.0,11.0,67,0.00,,,0.00,Wunderground v.1.15,2013-02-16 21:25:00,
2013-02-16 16:30:00,22.6,14.0,30.14,NW,325,8.0,8.0,69,0.00,,,0.00,Wunderground v.1.15,2013-02-16 21:30:00,
2013-02-16 16:35:00,22.9,13.6,30.14,NNW,346,7.0,8.0,67,0.00,,,0.00,Wunderground v.1.15,2013-02-16 21:35:00,
2013-02-16 16:40:00,23.0,13.7,30.15,WNW,298,7.0,9.0,67,0.00,,,0.00,Wunderground v.1.15,2013-02-16 21:40:00,
2013-02-16 16:45:00,22.9,13.6,30.15,NW,313,6.0,9.0,67,0.00,,,0.00,Wunderground v.1.15,2013-02-16 21:45:00,
2013-02-16 16:55:00,23.3,13.3,30.15,West,275,6.0,7.0,65,0.00,,,0.00,Wunderground v.1.15,2013-02-16 21:55:00,
2013-02-16 17:00:00,23.0,13.0,30.15,WNW,299,6.0,8.0,65,0.00,,,0.00,Wunderground v.1.15,2013-02-16 22:00:00,
2013-02-16 17:05:00,22.8,13.1,30.15,NW,313,7.0,8.0,66,0.00,,,0.00,Wunderground v.1.15,2013-02-16 22:05:00,
2013-02-16 17:10:00,22.9,13.2,30.15,WNW,302,6.0,6.0,66,0.00,,,0.00,Wunderground v.1.15,2013-02-16 22:10:00,
2013-02-16 17:15:00,22.9,13.2,30.15,West,280,6.0,9.0,66,0.00,,,0.00,Wunderground v.1.15,2013-02-16 22:15:00,
2013-02-16 17:25:00,22.6,13.6,30.15,WNW,284,7.0,8.0,68,0.00,,,0.00,Wunderground v.1.15,2013-02-16 22:25:00,
2013-02-16 17:30:00,22.5,13.9,30.14,WNW,296,6.0,6.0,69,0.00,,,0.00,Wunderground v.1.15,2013-02-16 22:30:00,
2013-02-16 17:35:00,22.5,13.9,30.14,North,360,5.0,7.0,69,0.00,,,0.00,Wunderground v.1.15,2013-02-16 22:35:00,
2013-02-16 17:40:00,22.5,14.2,30.14,NW,321,5.0,7.0,70,0.00,,,0.00,Wunderground v.1.15,2013-02-16 22:40:00,
2013-02-16 17:45:00,22.6,14.3,30.14,NW,311,5.0,7.0,70,0.00,,,0.00,Wunderground v.1.15,2013-02-16 22:45:00,
2013-02-16 17:50:00,22.6,14.6,30.14,NW,306,6.0,6.0,71,0.00,,,0.00,Wunderground v.1.15,2013-02-16 22:50:00,
2013-02-16 18:00:00,22.2,15.2,30.14,NW,321,5.0,6.0,74,0.00,,,0.00,Wunderground v.1.15,2013-02-16 23:00:00,
2013-02-16 18:05:00,22.1,15.4,30.14,NW,323,5.0,6.0,75,0.00,,,0.00,Wunderground v.1.15,2013-02-16 23:05:00,
2013-02-16 18:10:00,22.1,15.4,30.14,NW,317,4.0,6.0,75,0.00,,,0.00,Wunderground v.1.15,2013-02-16 23:10:00,
2013-02-16 18:15:00,22.0,15.6,30.14,WNW,296,4.0,6.0,76,0.00,,,0.00,Wunderground v.1.15,2013-02-16 23:15:00,
2013-02-16 18:20:00,21.9,15.5,30.14,NW,325,3.0,3.0,76,0.00,,,0.00,Wunderground v.1.15,2013-02-16 23:20:00,
2013-02-16 18:30:00,22.0,15.9,30.14,NW,321,2.0,2.0,77,0.00,,,0.00,Wunderground v.1.15,2013-02-16 23:30:00,
2013-02-16 18:35:00,22.1,15.4,30.14,WNW,290,1.0,6.0,75,0.00,,,0.00,Wunderground v.1.15,2013-02-16 23:35:00,
2013-02-16 18:40:00,22.2,15.5,30.14,WNW,294,2.0,6.0,75,0.00,,,0.00,Wunderground v.1.15,2013-02-16 23:40:00,
2013-02-16 18:45:00,22.4,15.7,30.14,WNW,298,2.0,6.0,75,0.00,,,0.00,Wunderground v.1.15,2013-02-16 23:45:00,
2013-02-16 18:50:00,22.6,15.6,30.15,West,281,2.0,6.0,74,0.00,,,0.00,Wunderground v.1.15,2013-02-16 23:50:00,
2013-02-16 18:55:00,22.7,16.6,30.15,WNW,296,3.0,9.0,77,0.00,,,0.00,Wunderground v.1.15,2013-02-16 23:55:00,
2013-02-16 19:05:00,22.1,17.2,30.14,WNW,296,4.0,6.0,81,0.00,,,0.00,Wunderground v.1.15,2013-02-17 00:05:00,
2013-02-16 19:10:00,22.1,16.9,30.14,WNW,286,4.0,6.0,80,0.00,,,0.00,Wunderground v.1.15,2013-02-17 00:10:00,
2013-02-16 19:15:00,22.2,16.7,30.14,West,263,3.0,6.0,79,0.00,,,0.00,Wunderground v.1.15,2013-02-17 00:15:00,
2013-02-16 19:20:00,22.4,16.6,30.15,WNW,295,3.0,6.0,78,0.00,,,0.00,Wunderground v.1.15,2013-02-17 00:20:00,
2013-02-16 19:25:00,22.6,16.8,30.15,NNW,342,4.0,8.0,78,0.00,,,0.00,Wunderground v.1.15,2013-02-17 00:25:00,
2013-02-16 19:35:00,22.5,17.3,30.15,WNW,288,7.0,7.0,80,0.00,,,0.00,Wunderground v.1.15,2013-02-17 00:35:00,
2013-02-16 19:40:00,22.4,17.2,30.15,West,277,6.0,6.0,80,0.00,,,0.00,Wunderground v.1.15,2013-02-17 00:40:00,
2013-02-16 19:45:00,22.4,17.2,30.15,NW,308,5.0,6.0,80,0.00,,,0.00,Wunderground v.1.15,2013-02-17 00:45:00,
2013-02-16 19:50:00,22.3,17.1,30.15,NW,317,4.0,4.0,80,0.00,,,0.00,Wunderground v.1.15,2013-02-17 00:50:00,
2013-02-16 19:55:00,22.3,17.1,30.15,WNW,303,4.0,6.0,80,0.00,,,0.00,Wunderground v.1.15,2013-02-17 00:55:00,
2013-02-16 20:00:00,22.3,16.8,30.16,WNW,295,4.0,4.0,79,0.00,,,0.00,Wunderground v.1.15,2013-02-17 01:00:00,
2013-02-16 20:10:00,22.4,16.3,30.16,WNW,288,5.0,6.0,77,0.00,,,0.00,Wunderground v.1.15,2013-02-17 01:10:00,
2013-02-16 20:15:00,22.5,15.8,30.16,WNW,297,6.0,7.0,75,0.00,,,0.00,Wunderground v.1.15,2013-02-17 01:15:00,
2013-02-16 20:20:00,22.5,15.5,30.16,WNW,288,6.0,6.0,74,0.00,,,0.00,Wunderground v.1.15,2013-02-17 01:20:00,
2013-02-16 20:25:00,22.5,14.8,30.16,NW,319,6.0,6.0,72,0.00,,,0.00,Wunderground v.1.15,2013-02-17 01:25:00,
2013-02-16 20:30:00,22.5,14.5,30.16,WNW,302,6.0,7.0,71,0.00,,,0.00,Wunderground v.1.15,2013-02-17 01:30:00,
2013-02-16 20:40:00,22.3,14.0,30.16,NW,319,6.0,6.0,70,0.00,,,0.00,Wunderground v.1.15,2013-02-17 01:40:00,
2013-02-16 20:45:00,22.2,13.9,30.16,NW,323,5.0,6.0,70,0.00,,,0.00,Wunderground v.1.15,2013-02-17 01:45:00,
2013-02-16 20:50:00,22.0,13.7,30.16,NNW,336,5.0,6.0,70,0.00,,,0.00,Wunderground v.1.15,2013-02-17 01:50:00,
2013-02-16 20:55:00,21.8,13.2,30.16,NW,323,5.0,8.0,69,0.00,,,0.00,Wunderground v.1.15,2013-02-17 01:55:00,
2013-02-16 21:05:00,21.2,14.5,30.16,NNW,345,5.0,6.0,75,0.00,,,0.00,Wunderground v.1.15,2013-02-17 02:05:00,
2013-02-16 21:10:00,20.9,14.5,30.17,NNW,336,5.0,6.0,76,0.00,,,0.00,Wunderground v.1.15,2013-02-17 02:10:00,
2013-02-16 21:20:00,20.6,14.5,30.17,North,355,4.0,6.0,77,0.00,,,0.00,Wunderground v.1.15,2013-02-17 02:20:00,
2013-02-16 21:25:00,20.6,14.8,30.17,NNW,338,4.0,6.0,78,0.00,,,0.00,Wunderground v.1.15,2013-02-17 02:25:00,
2013-02-16 21:30:00,20.7,14.3,30.17,NW,325,4.0,6.0,76,0.00,,,0.00,Wunderground v.1.15,2013-02-17 02:30:00,
2013-02-16 21:35:00,20.8,14.4,30.17,NNW,344,5.0,6.0,76,0.00,,,0.00,Wunderground v.1.15,2013-02-17 02:35:00,
2013-02-16 21:40:00,20.8,14.1,30.17,NW,322,5.0,5.0,75,0.00,,,0.00,Wunderground v.1.15,2013-02-17 02:40:00,
2013-02-16 21:50:00,20.6,13.6,30.17,NW,325,5.0,5.0,74,0.00,,,0.00,Wunderground v.1.15,2013-02-17 02:50:00,
2013-02-16 21:55:00,20.3,12.7,30.18,NW,321,5.0,6.0,72,0.00,,,0.00,Wunderground v.1.15,2013-02-17 02:55:00,
2013-02-16 22:00:00,20.2,12.3,30.18,NNW,340,6.0,13.0,71,0.00,,,0.00,Wunderground v.1.15,2013-02-17 03:00:00,
2013-02-16 22:05:00,20.0,12.4,30.18,WNW,288,6.0,13.0,72,0.00,,,0.00,Wunderground v.1.15,2013-02-17 03:05:00,
2013-02-16 22:10:00,19.9,12.3,30.18,NNW,337,6.0,6.0,72,0.00,,,0.00,Wunderground v.1.15,2013-02-17 03:10:00,
2013-02-16 22:20:00,19.4,11.5,30.19,WNW,292,5.0,6.0,71,0.00,,,0.00,Wunderground v.1.15,2013-02-17 03:20:00,
2013-02-16 22:25:00,19.1,10.9,30.19,NNW,338,5.0,6.0,70,0.00,,,0.00,Wunderground v.1.15,2013-02-17 03:25:00,
2013-02-16 22:30:00,19.0,11.1,30.19,NW,318,5.0,5.0,71,0.00,,,0.00,Wunderground v.1.15,2013-02-17 03:30:00,
2013-02-16 22:35:00,19.0,10.8,30.19,WNW,299,4.0,6.0,70,0.00,,,0.00,Wunderground v.1.15,2013-02-17 03:35:00,
2013-02-16 22:40:00,19.0,10.5,30.19,WNW,300,6.0,6.0,69,0.00,,,0.00,Wunderground v.1.15,2013-02-17 03:40:00,
2013-02-16 22:45:00,19.0,10.5,30.19,NW,311,7.0,7.0,69,0.00,,,0.00,Wunderground v.1.15,2013-02-17 03:45:00,
2013-02-16 22:55:00,18.8,10.3,30.19,North,360,5.0,9.0,69,0.00,,,0.00,Wunderground v.1.15,2013-02-17 03:55:00,
2013-02-16 23:00:00,18.6,10.1,30.19,NW,325,5.0,7.0,69,0.00,,,0.00,Wunderground v.1.15,2013-02-17 04:00:00,
2013-02-16 23:05:00,18.5,10.3,30.19,NW,320,5.0,7.0,70,0.00,,,0.00,Wunderground v.1.15,2013-02-17 04:05:00,
2013-02-16 23:10:00,18.5,10.7,30.19,NW,326,5.0,5.0,71,0.00,,,0.00,Wunderground v.1.15,2013-02-17 04:10:00,
2013-02-16 23:15:00,18.4,10.9,30.19,WNW,301,3.0,6.0,72,0.00,,,0.00,Wunderground v.1.15,2013-02-17 04:15:00,
2013-02-16 23:25:00,18.1,10.6,30.19,NNW,346,3.0,7.0,72,0.00,,,0.00,Wunderground v.1.15,2013-02-17 04:25:00,
2013-02-16 23:30:00,18.0,10.5,30.19,NNW,330,4.0,4.0,72,0.00,,,0.00,Wunderground v.1.15,2013-02-17 04:30:00,
2013-02-16 23:35:00,17.9,10.7,30.19,NW,307,4.0,6.0,73,0.00,,,0.00,Wunderground v.1.15,2013-02-17 04:35:00,
2013-02-16 23:40:00,17.8,10.6,30.19,NW,317,4.0,6.0,73,0.00,,,0.00,Wunderground v.1.15,2013-02-17 04:40:00,
2013-02-16 23:45:00,17.7,10.5,30.19,NNW,336,4.0,6.0,73,0.00,,,0.00,Wunderground v.1.15,2013-02-17 04:45:00,
2013-02-16 23:55:00,17.5,10.0,30.19,NW,317,4.0,6.0,72,0.00,,,0.00,Wunderground v.1.15,2013-02-17 04:55:00,